Flag for Canada Weather past 2 weeks in Happy Valley-Goose Bay, Newfoundland and Labrador, Canada

Now
36 °F

Light rain. Mostly cloudy.


Feels Like: 26 °F
Forecast: N/A
Wind: 15 mph from Northeast

Location: Goose

Current Time: Apr 27, 2015 at 6:17:44 PM

Latest Report: Apr 27, 2015 at 5:00 PM


Visibility: 7 mi

Pressure: 30.19 "Hg

Humidity: 81%

Dew point: 30 °F

Location of Happy Valley-Goose BayLocation

Historic Weather in Happy Valley-Goose Bay — Graph

°F

Happy Valley-Goose Bay temperature yesterday

Maximum temperature yesterday: 37 °F (at 10:00 AM)
Minimum temperature yesterday: 36 °F (at 12:00 AM)
Average temperature yesterday: 36 °F

Past Weeks' High & Low Weather Summary

 TemperatureHumidityPressure
High52 °F (Apr 13, 3:00 PM)87% (Apr 24, 4:00 AM)30.42 "Hg (Apr 24, 4:00 AM)
Low10 °F (Apr 13, 5:00 AM)29% (Apr 21, 3:00 PM)29.20 "Hg (Apr 14, 3:00 PM)
Average32 °F60%29.96 "Hg
* Reported Apr 12 5:00 PM — Apr 27 5:00 PM, Happy Valley-Goose Bay, Weather by CustomWeather, © 2015

Note: Actual official high and low records may vary slightly from our data, if they occured in-between our weather recording intervals... More about our weather records

Advertising

Happy Valley-Goose Bay weather history for previous 24 hours

 ConditionsComfort  
Time TempWeatherWind HumidityBarometerVisibility
5:00 PM
Mon, Apr 27
36 °FLight rain. Mostly cloudy.15 mph81%30.19 "Hg7 mi
4:00 PM36 °FLight rain. Mostly cloudy.16 mph81%30.18 "Hg8 mi
3:00 PM36 °FLight rain. Mostly cloudy.17 mph75%30.19 "Hg8 mi
2:00 PM36 °FLight rain. Mostly cloudy.17 mph81%30.18 "Hg15 mi
1:00 PM36 °FLight rain. Mostly cloudy.24 mph81%30.17 "Hg12 mi
12:45 PM36 °FMostly cloudy.21 mph81%30.17 "Hg12 mi
12:00 PM36 °FSleet. Mostly cloudy.18 mph75%30.17 "Hg12 mi
11:00 AM36 °FSleet. Mostly cloudy.24 mph81%30.16 "Hg8 mi
10:45 AM36 °FSleet. Mostly cloudy.21 mph81%30.16 "Hg8 mi
10:00 AM36 °FSleet. Fog.20 mph81%30.16 "Hg3 mi
9:00 AM36 °FSleet. Fog.16 mph81%30.15 "Hg3 mi
8:00 AM36 °FLight rain. Fog.17 mph81%30.14 "Hg2 mi
7:00 AM36 °FLight rain. Fog.17 mph81%30.13 "Hg2 mi
6:00 AM36 °FLight rain. Fog.15 mph81%30.11 "Hg4 mi
5:54 AM36 °FLight rain. Fog.17 mph81%30.11 "Hg4 mi
4:00 AM36 °FLight rain. Fog.16 mph81%30.11 "Hg3 mi
3:00 AM36 °FLight rain. Fog.18 mph81%30.11 "Hg3 mi
2:00 AM36 °FLight rain. Fog.20 mph81%30.11 "Hg3 mi
1:00 AM36 °FLight rain. Fog.16 mph81%30.11 "Hg2 mi
12:45 AM36 °FLight rain. Fog.18 mph81%30.11 "Hg2 mi
12:00 AM36 °FLight rain. Fog.20 mph81%30.11 "Hg2 mi
11:00 PM
Sun, Apr 26
36 °FRain. Fog.16 mph81%30.11 "Hg1 mi
10:00 PM36 °FRain. Fog.17 mph81%30.12 "Hg3 mi
9:52 PM36 °FRain. Fog.17 mph81%30.11 "Hg3 mi
9:00 PM36 °FLight rain. Fog.17 mph87%30.11 "Hg3 mi
8:00 PM37 °FLight rain. Low clouds.22 mph81%30.09 "Hg7 mi
7:00 PM37 °FLight rain. Fog.22 mph81%30.08 "Hg3 mi
6:00 PM36 °FLight rain. Fog.23 mph81%30.06 "Hg5 mi
Weather by CustomWeather, © 2015

See weather overviewHow to use our weather pages